CZ-7 DEB (48807 NORAD) Tracking and Keplerian Element Data

This shows tracking and keplerian element data for the satellite.

Feedback or suggestion? Click here.




ElementValue
Catalog48807
NameCZ-7 DEB
Epoch Orbit112
Epoch Day156.56182258
Epoch Year2021
RAAN352.6664
Inclination41.7885
Eccentricity0.0089491
Argument of Perigee232.5831
Mean Anonmoly126.698
Mean Motion16.13800983
Decay Rate0.05162357
L11 48807U 21046E 21156.56182258 .05162357 76695-5 19324-2 0 9990
L22 48807 41.7885 352.6664 0089491 232.5831 126.6980 16.13800983 1124



Live tracking and technical data element details for CZ-7 DEB (NORAD 48807). CZ-7 DEB can be tracked NOW for your location showing map with azimuth and elevation plus other details from your city location.







IsCatalogInMostPopularTable: catalog: 48807, numindb: 79
Update: records affected: 1



GetName: 48807 CZ-7 DEB

Hit Count: updated at: Sun, 28 May 2023 19:08:08 GMT